Location: Emblem
(62.4273°N, 6.4710°E)
Time: 05:59:36
(UTC+02:00)

Transit 2A - Pass Details

Date: 09 March 2024
Orbit: 596 x 956 km, 66.7° (Epoch: 24 April)

Event Time Altitude Azimuth Distance (km) Brightness Sun altitude
Rises 23:32:51 0° 300° (WNW) 2,933 9.7 -30.1°
Reaches altitude 10° 23:35:03 10° 301° (WNW) 2,059 8.8 -30.2°
Enters shadow 23:37:53 38° 304° (NW) 1,025 6.9 -30.3°
